{"data":{"norad_id":57442,"epoch":"2026-05-25T03:33:58.930272Z","epoch_age_seconds":61449,"freshness":"FRESH","line1":"1 57442U 23105N   26145.14859873 -.00003888  00000+0 -13187-3 0  9997","line2":"2 57442  43.0013 188.1847 0001492 269.8356  90.2325 15.27570806157338","mean_motion":15.27570806,"eccentricity":0.0001492,"inclination_deg":43.0013,"raan_deg":188.1847,"arg_perigee_deg":269.8356,"mean_anomaly_deg":90.2325,"bstar":-0.00013187,"rev_number":15733,"period_min":94.267316077524,"perigee_km":482.05293324821,"apogee_km":484.10031939431,"semimajor_km":6861.2136263213,"source":"CELESTRAK","updated_at":"2026-05-25T13:38:18.320478Z"}}